This is the latest recevied weather packets stored in our database for station/object DH0DM-13. If no packets are shown the sender has not sent any weather packets the latest 10 day(s).
| Time | Temp. | Humidity | Pressure | Rain* | Wind** | Luminosity | Snow |
|---|---|---|---|---|---|---|---|
| 1787457750 | 11.67° C | 88% | 994.1 hPa | 0 mm | 4.92 m/s, 275° | - | - |
| 1787457149 | 11.67° C | 87% | 994.2 hPa | 0 mm | 4.02 m/s, 261° | - | - |
| 1787456548 | 11.67° C | 87% | 994 hPa | 0 mm | 4.02 m/s, 211° | - | - |
| 1787455948 | 12.22° C | 86% | 994.2 hPa | 0 mm | 1.34 m/s, 236° | - | - |
| 1787455347 | 12.22° C | 86% | 994.3 hPa | 0 mm | 4.92 m/s, 235° | - | - |
| 1787454746 | 12.22° C | 85% | 994.1 hPa | 0 mm | 2.24 m/s, 240° | - | - |
| 1787454145 | 12.22° C | 85% | 994 hPa | 0 mm | 1.34 m/s, 223° | - | - |
| 1787453544 | 12.22° C | 84% | 994.1 hPa | 0 mm | 7.15 m/s, 202° | - | - |
| 1787452943 | 12.22° C | 85% | 994.1 hPa | 0 mm | 2.68 m/s, 227° | - | - |
| 1787452342 | 12.22° C | 85% | 994 hPa | 0 mm | 2.24 m/s, 236° | - | - |
| 1787451741 | 12.22° C | 85% | 993.8 hPa | 0 mm | 2.24 m/s, 238° | - | - |
| 1787451141 | 12.22° C | 85% | 993.9 hPa | 0 mm | 3.58 m/s, 215° | - | - |
| 1787450540 | 12.22° C | 85% | 994.1 hPa | 0 mm | 3.58 m/s, 214° | - | - |
| 1787449939 | 12.22° C | 84% | 993.9 hPa | 0 mm | 1.34 m/s, 236° | - | - |
| 1787449338 | 12.22° C | 84% | 993.9 hPa | 0 mm | 6.71 m/s, 246° | - | - |
| 1787448737 | 12.78° C | 84% | 993.8 hPa | 0 mm | 6.71 m/s, 266° | - | - |
| 1787448136 | 12.22° C | 84% | 993.8 hPa | 0 mm | 6.71 m/s, 223° | - | - |
| 1787447535 | 12.78° C | 84% | 993.8 hPa | 0 mm | 1.34 m/s, 228° | - | - |
| 1787446934 | 12.78° C | 84% | 993.7 hPa | 0 mm | 1.79 m/s, 234° | - | - |
| 1787446333 | 12.78° C | 83% | 993.6 hPa | 0 mm | 4.92 m/s, 243° | - | - |
| 1787445732 | 12.78° C | 82% | 993.4 hPa | 0 mm | 3.13 m/s, 239° | - | - |
| 1787445131 | 12.78° C | 82% | 993.5 hPa | 0 mm | 5.81 m/s, 234° | - | - |
| 1787444530 | 13.33° C | 81% | 993.4 hPa | 0 mm | 5.36 m/s, 225° | - | - |
| 1787443929 | 13.33° C | 82% | 993.7 hPa | 0 mm | 8.05 m/s, 233° | - | - |
| 1787443329 | 13.33° C | 82% | 993.5 hPa | 0 mm | 3.58 m/s, 266° | - | - |
* Rain since midnight (hover to see other rain measurements)
** Current wind speed in m/s (hover to see current wind gust speed)